CAPE
2721 2705 2791 3075 2960 2852 2806 2281 1730 1833 2597 1958 1809 1771 1545 1443 1264 1398 1293 1307 1676 2435 2027 2024 2382 2591 2772 2803 3110 3217 3489 2920 2864 3365 3308 3266 3186 2535 2397 2393 2330 2368 2398 2415 2577 2686 2771 2821 2848 2915 2757 2490 2390 2385 2323 2199 2053 1950 1796 1660 1451 1177 1012 607 0 1 2 3 2 2 3 3 6 8
2767 2961 3051 2792 2856 2770 2729 2595 1872 2166 2197 2043 2002 2044 1681 1491 1338 1296 1192 1469 1154 2113 2212 1858 2256 2622 2723 2358 2822 2792 2950 2625 2877 3677 3209 2947 3022 2311 2301 2296 2339 2367 2391 2416 2432 2502 2665 2711 2726 2802 2851 2677 2442 2446 2414 2289 2196 2074 1962 1782 1620 1393 1069 852 0 0 2 196 2 2 3 3 3 4
2924 2884 2813 2714 2762 2868 2984 2890 2361 2344 2630 2391 1917 2561 1858 1587 1454 1471 1441 1512 1837 1464 2367 2301 1861 1918 2235 2358 2736 2611 2745 2832 2961 3436 3136 3015 2595 2562 2506 2436 2397 2400 2402 2395 2444 2484 2485 2610 2624 2662 2804 2817 2570 2499 2458 2385 2290 2198 2054 1916 1695 1564 1264 960 434 0 0 2 2 2 3 3 3 3
3331 3151 3044 3000 3086 3321 3255 2969 2618 2258 2414 2401 2190 2136 1914 1903 1607 1520 1440 1535 1989 1726 1864 2038 2046 1851 2222 2522 2629 2668 2935 3075 2149 3473 3397 3286 2656 3297 3365 2758 2694 2575 2489 2619 2653 2602 2562 2567 2564 2613 2688 2776 2762 2685 2570 2449 2351 2272 2160 2007 1808 1642 1479 1125 787 173 0 1 2 2 2 3 3 2
3454 3592 3398 3286 3344 3328 3256 3134 2641 2347 2170 2153 2234 2114 1769 1934 1693 1678 1651 1702 1937 1910 1574 1540 1763 2088 2149 2041 2472 2443 2564 2851 3042 2835 3528 3477 3346 3345 3413 3393 2823 2751 2677 2677 2697 2652 2588 2539 2530 2550 2637 2718 2767 2787 2679 2526 2330 2199 2148 2045 1866 1710 1618 1377 973 499 0 0 1 2 2 2 2 3
2901 3187 3221 3189 3051 2987 2946 2914 2723 2413 2342 2347 2442 2487 2356 2026 1982 1816 1804 1606 1592 1903 1676 1637 1622 1427 2095 2134 2391 2276 2503 2678 3093 3225 3245 2959 3038 3401 3632 3594 3456 2697 2605 2560 2550 2589 2589 2524 2473 2482 2547 2626 2679 2794 2731 2547 2335 2090 2011 2000 1890 1702 1673 1622 1174 710 102 0 1 1 2 1 1 1
2938 2944 2947 2944 2928 2840 2690 2706 2683 2474 2366 2394 2486 2503 2467 2412 2352 2022 1761 1534 1548 1665 1971 1433 1404 1798 2316 2378 2342 2403 2380 2821 2973 3021 3281 3110 2853 2846 2951 3216 3104 2542 2420 2342 2315 2327 2420 2497 2487 2488 2490 2575 2696 2762 2725 2573 2344 2061 1822 1788 1764 1667 1627 1681 1525 998 502 267 0 1 0 0 0 0
2825 2844 2850 2857 2790 2665 2552 2568 2598 2472 2296 2279 2386 2400 2424 2350 2311 2294 2201 2130 1906 1726 1766 1941 1704 1879 1670 1999 2094 2139 2454 2630 3076 3016 3182 2924 2757 2785 2700 2882 3062 2809 2278 2223 2229 2214 2248 2320 2450 2500 2491 2654 2762 2758 2692 2567 2350 2056 1756 1583 1562 1600 1595 1688 1674 1349 816 393 13 1 0 0 0 0
2805 2667 2730 2752 2570 2393 2343 2386 2280 2318 2376 2485 2336 2376 2358 2188 2110 2021 1915 1892 1894 1842 1745 1868 1576 1550 1699 2095 2234 2579 2765 3006 2908 2785 2612 2660 2765 3089 2921 2619 2693 2223 2089 2108 2109 2110 2095 2158 2248 2332 2388 2469 2638 2686 2610 2489 2288 2006 1740 1492 1344 1444 1527 1646 1731 1622 1126 575 393 0 0 0 0 0
2445 2526 2525 2459 2466 2346 2261 2371 2258 2103 2149 2179 2139 2208 2283 2184 1953 1893 1817 1664 1642 1637 1788 1654 1702 1643 1677 1845 1851 1906 2559 2650 2734 2708 2926 2840 2818 2974 2993 2639 2013 1994 2248 2465 2323 1710 1621 1779 2004 2155 2256 2382 2480 2525 2472 2342 2140 1897 1644 1392 1182 1310 1434 1533 1673 1696 1420 860 535 282 0 0 0 0
1965 1960 2093 2224 2192 2224 2203 2137 2174 2155 1953 1776 1979 2096 2131 2071 1866 1887 1890 1686 1547 1596 1619 1584 1536 1602 1504 1419 1800 2062 2011 2367 2453 2619 2718 2317 2531 2587 2287 2168 2140 1783 1673 1500 1139 1246 1370 1566 1867 2132 2268 2291 2248 2153 2040 1878 1744 1586 1370 1183 1046 1216 1354 1461 1569 1671 1573 1155 704 463 0 0 0 0
1654 1645 1628 1700 1889 1998 2078 2014 2001 1945 1964 1785 1678 1700 1638 1710 1730 1850 1838 1608 1516 1478 1336 1399 1558 1458 1317 1432 1453 1613 1552 1828 1956 2368 2725 2287 1916 2072 2243 1830 1714 1903 1779 1755 1770 1299 1283 1419 1622 1840 1969 1996 1946 1807 1521 1216 996 877 794 773 862 1113 1287 1375 1478 1605 1568 1299 885 582 295 0 0 0
1441 1421 1445 1406 1413 1706 2231 1991 1842 1763 1792 1657 1603 1596 1444 1507 1502 1636 1548 1556 1568 1512 1325 1400 1344 1124 1253 1332 1276 1290 1349 1382 1334 1614 1953 2384 2240 2057 1576 1589 1837 1623 1636 2086 1753 1764 1447 1120 1217 1290 1403 1422 1180 1018 829 586 397 63 62 442 692 893 1144 1308 1419 1535 1605 1414 1021 687 489 0 0 0
1247 1222 1222 1309 1781 2098 2138 1866 1623 1492 1595 2026 1827 1621 1409 1390 1421 1382 1338 1401 1420 1365 1355 1313 1277 1234 1235 1211 1172 1150 1154 1147 1304 1268 1446 1367 1596 1618 1637 1774 1778 1832 1872 1960 2114 2311 1632 1020 1133 1057 1022 1044 858 702 600 534 194 0 0 132 547 649 879 1159 1319 1454 1531 1479 1131 767 554 265 0 0
1337 1246 1161 1112 1304 1948 2438 2610 1980 1536 1327 1232 1434 1970 2349 2236 1512 1290 1268 1242 1216 1126 1214 1249 1146 1098 1122 1189 1128 1044 874 941 964 1164 1338 1306 1422 1453 1536 1420 1561 1903 1757 2111 1786 1585 1304 856 1300 1502 1082 982 924 839 775 748 532 0 0 0 459 514 624 978 1198 1353 1471 1405 1233 845 593 446 0 0
1146 1164 1045 944 828 953 1182 1446 1791 1806 1708 1495 1323 1174 1081 1161 1780 2021 1927 1556 1421 1166 1082 1152 1055 1071 1026 878 895 842 777 830 1129 1243 1203 1378 1401 1514 1492 1533 1211 1716 1423 1833 1428 1460 1902 886 985 1088 1062 1033 964 880 854 814 644 56 0 0 510 560 561 722 1088 1263 1395 1419 1194 978 634 482 234 0
779 787 874 758 621 576 984 1426 1392 1143 1103 787 766 852 902 902 879 846 823 1123 1780 1584 1402 1170 1039 1073 890 830 744 893 912 1092 998 1080 1330 1315 1292 1263 1378 1470 1305 1356 1427 1322 1417 1477 1629 962 1272 1237 1250 991 916 868 824 741 603 472 30 478 632 659 618 611 801 1226 1300 1338 1225 900 673 475 391 0
601 540 588 644 636 626 667 898 1151 1171 1113 1016 903 822 766 675 652 450 132 2 0 470 1250 1340 1136 1043 1019 754 656 792 995 992 896 1002 1167 1146 1342 1320 1280 1339 1363 1453 1170 1329 1533 1500 1565 1144 932 968 1138 1012 1010 929 728 640 570 548 576 640 694 715 695 646 622 944 1310 1349 1206 993 667 503 392 220
687 606 620 621 618 599 623 594 623 629 649 673 590 574 502 436 418 357 306 376 637 470 378 718 1127 1014 997 910 792 749 868 1084 1084 1070 1121 1416 1379 1464 1421 1213 1224 1190 1135 1124 1072 1372 1620 1025 922 1284 1293 1255 1250 1200 803 578 428 436 579 637 687 748 743 669 563 549 1166 1337 1289 1026 756 508 78 0
611 706 682 672 674 580 560 581 518 617 921 586 501 484 437 353 249 143 66 23 55 291 472 473 533 597 615 350 416 439 479 770 1396 1278 1309 1392 1706 1797 1811 1746 1604 1414 1598 1025 1250 1295 1340 1605 1111 1398 1470 1245 1088 1119 1053 525 18 0 0 250 170 648 675 164 0 0 882 1292 1303 1128 808 295 0 0
917 865 786 700 691 636 589 419 486 505 516 540 542 581 604 673 744 864 958 1019 1031 1000 911 755 65 0 229 394 284 72 466 495 552 785 931 1028 1100 1500 1415 1428 1254 1226 1011 1024 992 1067 1237 1444 1316 1346 1342 1238 981 985 1020 1004 410 0 0 0 0 0 0 0 0 0 405 1081 1295 1206 941 561 0 0
965 1012 1077 1120 1095 1031 1002 930 944 907 912 897 936 984 1022 1052 1105 1127 1223 1256 1300 1303 1291 1144 862 422 0 445 500 514 541 618 737 892 1080 1258 1272 1202 1114 1056 1022 1004 1037 1051 1054 1024 1094 1259 1332 1222 1374 1067 972 836 892 775 464 0 0 0 0 0 0 0 0 0 0 812 1114 1181 1039 752 150 0
1133 1138 1138 1164 1199 1226 1268 1283 1275 1232 1174 1131 1115 1102 1081 1086 1048 1020 962 1059 1108 1169 1181 1124 920 692 583 521 656 700 780 920 1110 1277 1431 1520 1518 1566 1606 1520 1414 1304 1314 1259 1231 1141 1526 1343 1462 1170 1340 1349 1506 910 636 201 57 0 0 0 0 0 0 0 0 0 0 0 837 1024 958 840 649 204
1503 1494 1434 1365 1359 1302 1242 1242 1248 1274 1249 1260 1232 1162 1124 1057 1051 1051 1106 1136 1130 1122 1102 1070 972 887 895 922 967 1024 1134 1267 1380 1449 1502 1537 1579 1688 1799 1814 1720 1664 1670 1610 1581 1557 1490 1405 1404 1348 1378 1294 1204 1054 1067 922 800 710 642 558 0 0 0 0 0 0 0 0 296 697 738 693 630 550
1445 1479 1483 1449 1480 1591 1634 1627 1590 1522 1439 1343 1269 1216 1182 1168 1151 1135 1200 1274 1320 1330 1316 1289 1262 1307 1262 1295 1312 1335 1372 1437 1484 1473 1450 1489 1560 1631 1748 1802 1739 1641 1660 1743 1799 1703 1685 1643 1626 1562 1544 1458 1407 1359 1211 1139 1054 992 968 901 740 332 103 0 0 0 0 0 0 0 231 222 224 222
939 964 991 1092 1170 1319 1398 1409 1430 1487 1590 1684 1698 1606 1486 1353 1234 1173 1127 1165 1262 1380 1446 1485 1526 1549 1551 1529 1478 1372 1346 1356 1426 1454 1437 1535 1596 1663 1739 1776 1718 1577 1492 1653 1521 1706 1787 1793 1806 1767 1704 1616 1589 1441 1256 1150 958 943 1025 1028 969 951 863 174 0 0 0 0 0 0 0 0 0 0
933 915 892 939 991 1055 1108 1144 1259 1469 1606 1608 1591 1588 1615 1617 1595 1530 1453 1378 1324 1295 1332 1351 1419 1477 1493 1474 1449 1492 1526 1519 1503 1554 1614 1664 1702 1736 1753 1753 1679 1581 1498 1425 1394 1453 1628 1774 1864 1848 1833 1796 1711 1619 1484 1351 1275 1066 1086 1114 1140 1152 1128 1084 947 365 0 0 0 0 0 0 0 0
882 882 893 878 875 963 1050 1180 1334 1514 1617 1567 1511 1463 1478 1467 1478 1507 1520 1487 1424 1403 1409 1413 1408 1422 1412 1408 1445 1469 1447 1459 1423 1437 1428 1574 1581 1370 1380 1350 1331 1307 1298 1278 1340 1402 1472 1513 1495 1601 1754 1813 1762 1657 1616 1551 1475 1366 1312 1251 1289 1214 1151 1099 1147 1143 906 109 0 0 0 0 0 0
504 589 611 655 682 764 846 991 1203 1328 1325 1300 1298 1234 1084 1022 1094 1184 1286 1374 1408 1404 1392 1391 1394 1374 1358 1335 1335 1343 1367 1373 1352 1336 1358 1393 1407 1384 1492 1480 1251 1259 1272 1265 1220 1331 1388 1442 1471 1519 1622 1788 1844 1801 1711 1674 1620 1581 1462 1380 1325 1272 1128 1099 1131 1173 1216 1102 720 88 0 0 0 0
323 413 491 516 533 510 569 635 681 739 822 809 810 860 899 927 999 991 949 954 1164 1289 1306 1288 1317 1347 1358 1373 1362 1342 1315 1315 1337 1320 1331 1352 1387 1353 1275 1502 1635 1542 1240 1216 1237 1289 1340 1386 1436 1535 1605 1654 1695 1701 1694 1643 1619 1628 1534 1401 1294 1249 1136 1118 1034 1052 1267 1325 1175 996 869 722 608 6
214 249 319 395 431 447 472 458 452 442 489 527 564 604 686 793 878 923 868 782 855 1072 1091 1099 1123 1174 1201 1232 1260 1346 1429 1432 1423 1389 1394 1384 1365 1282 1185 1225 1322 1225 1554 1536 1231 1214 1207 1344 1409 1483 1516 1554 1560 1554 1562 1542 1528 1523 1536 1461 1312 1172 1131 1081 1068 1039 1024 1042 1165 1285 1349 1261 1091 874
3 68 71 93 180 233 288 306 291 244 218 184 227 302 418 530 608 644 714 734 704 688 681 730 788 869 911 1020 1087 1156 1233 1314 1383 1416 1436 1435 1371 1254 1184 1221 1258 1254 1245 1214 1600 1402 1139 1244 1314 1333 1363 1398 1445 1496 1545 1540 1468 1400 1357 1360 1312 1240 1099 988 976 953 994 1067 1069 1095 1115 1081 980 903
0 2 3 2 4 4 4 2 6 5 0 0 0 0 9 176 326 397 472 498 515 517 514 512 501 464 570 676 906 1034 1078 1149 1183 1233 1349 1429 1358 1316 1260 1280 1313 1350 1345 1371 1357 1422 1488 1600 1713 1704 1753 1677 1654 1551 1504 1421 1270 1206 1239 1255 1194 1164 1082 1021 993 976 963 973 992 976 973 929 837 818
0 0 0 0 0 0 0 0 0 0 0 0 0 0 0 0 11 41 50 121 268 280 280 266 332 484 534 591 637 776 909 930 912 967 1043 1166 1228 1261 1336 1320 1339 1256 1277 1349 1392 1483 1585 1730 1754 1721 1634 1571 1479 1362 1258 1224 1206 1151 1300 1407 1355 1341 1247 1129 1013 962 928 907 924 933 901 890 843 788
0 0 0 0 0 0 0 0 0 0 0 0 0 0 0 0 2 2 3 63 84 69 6 30 326 400 450 468 495 557 660 749 753 683 675 716 894 1022 1150 1252 1268 1226 1158 1193 1287 1337 1474 1545 1582 1500 1473 1430 1323 1288 1202 1213 1146 1274 1315 1348 1317 1184 1209 1300 1212 1031 914 942 874 839 846 817 813 751
0 0 0 0 0 0 0 0 0 0 0 0 0 1 0 0 1 2 3 5 9 9 96 254 289 377 414 456 485 502 500 523 654 685 813 825 792 788 846 949 984 980 985 1033 1106 1113 1216 1244 1287 1308 1366 1372 1351 1323 1331 1128 1123 1440 1436 1433 1265 1466 1426 1327 1282 1267 916 997 1006 955 880 819 810 774
0 0 0 0 0 0 0 0 0 0 1 1 2 2 3 3 2 2 4 4 6 6 7 7 5 65 218 386 448 391 297 480 595 715 759 820 834 855 908 919 948 976 1046 1110 1132 1181 1201 1198 1164 1152 1193 1165 1228 1241 1340 1245 1128 1069 1533 1430 1460 1356 1388 1441 1387 1317 1054 936 985 1014 1056 1097 1064 978
0 0 0 0 0 0 0 0 0 0 0 1 2 2 2 3 3 3 4 5 6 6 6 6 6 12 9 41 85 102 130 540 570 637 744 805 836 961 1038 1050 1074 1134 1196 1301 1360 1358 1325 1246 1176 1144 1085 1150 1254 1344 1379 1332 1291 1263 1072 1095 1360 1307 1176 1303 1263 1188 1305 1150 887 908 998 1120 1231 1236
0 0 0 0 0 0 0 0 1 0 0 0 0 0 1 2 3 3 4 5 6 6 6 7 10 13 15 20 20 16 15 13 9 274 315 598 798 845 932 971 1026 1114 1192 1271 1366 1387 1393 1269 1185 1096 1061 1035 1079 1170 1224 1299 1287 1504 1806 1011 1071 1233 1203 1279 1222 1240 1317 1322 1191 892 926 1042 1142 1216
0 0 0 0 0 0 0 0 1 2 2 2 2 2 2 2 2 4 5 7 7 7 8 9 11 10 11 15 17 15 10 11 11 11 9 21 408 468 686 844 898 972 1098 1207 1252 1236 1158 1075 962 933 914 879 919 1009 1104 1173 1284 1149 988 880 827 939 1026 1286 1231 1263 1285 1338 1496 1258 1046 1075 1158 1293
0 0 0 0 0 0 0 0 0 0 1 2 3 4 9 9 7 5 6 8 9 8 8 8 8 9 9 9 10 13 11 12 13 15 48 286 406 459 503 525 603 683 672 689 776 927 939 1077 996 806 783 751 748 825 900 977 1078 1169 1150 1090 985 991 1071 957 1187 1426 1393 1494 1757 1628 1117 1133 1177 1262
0 0 0 0 0 0 0 0 0 0 1 3 4 4 4 5 6 9 10 7 6 7 7 8 10 14 8 10 11 15 20 14 16 16 14 12 7 6 63 448 524 549 631 704 759 808 867 1035 802 809 678 705 724 725 744 895 1010 1089 1095 1136 1224 926 937 1015 1031 1016 1082 1768 1753 1233 1290 1334 1257 1294
0 0 0 0 0 0 0 0 0 0 0 2 3 4 4 4 5 5 6 6 8 8 8 10 10 11 12 12 12 16 14 9 10 8 8 8 8 9 9 8 9 173 461 610 697 795 850 840 764 672 616 610 644 658 641 804 1006 1145 1233 1178 1051 1160 1108 1032 1086 1104 1167 1225 1186 1213 1238 1269 1258 1299
0 0 0 0 0 0 0 0 0 0 0 0 2 3 3 5 5 5 6 5 6 7 6 8 9 9 8 7 8 9 11 10 6 6 4 7 8 12 11 12 12 13 11 30 412 600 752 777 732 716 560 512 553 548 559 628 815 1051 1144 1196 1185 1111 1294 1196 1088 1114 1167 1176 1174 1175 1176 1257 1321 1333
0 0 0 0 0 0 0 0 0 0 0 0 0 0 2 3 4 4 4 4 4 4 5 5 5 8 8 10 11 6 6 6 5 8 6 5 6 8 11 11 11 11 14 12 18 10 131 274 343 419 414 430 470 488 506 512 572 729 900 1014 1082 1107 1115 1136 1074 1054 1020 1030 1065 1077 1136 1220 1246 1332
Wind_Speed
4 4 3 3 4 6 7 7 8 8 9 9 8 7 7 8 8 5 7 6 7 7 7 7 5 6 5 3 2 1 3 3 4 5 6 7 8 10 13 14 16 18 19 20 22 22 22 21 21 21 21 20 19 18 19 20 19 20 18 19 21 20 17 16 nan nan nan nan nan nan nan nan nan nan
5 5 5 4 4 6 6 7 8 8 7 8 7 8 8 9 7 7 6 5 8 7 8 8 6 6 5 4 2 3 4 5 6 7 8 8 9 12 14 15 17 18 19 21 22 22 22 22 21 21 21 22 21 21 21 21 20 19 19 19 20 21 18 16 nan nan nan 4 nan nan nan nan nan nan
5 5 4 5 5 6 6 7 9 9 8 9 9 9 10 9 10 10 10 9 7 10 7 7 7 6 5 5 4 4 7 7 6 7 7 7 9 11 12 13 14 16 18 20 22 23 23 22 22 22 23 23 23 25 24 24 22 21 19 19 20 21 20 17 16 nan nan nan nan nan nan nan nan nan
4 5 4 4 5 7 7 7 7 8 8 9 10 10 10 10 10 12 12 11 6 9 8 6 4 6 7 6 5 5 5 5 4 4 4 5 6 9 10 11 12 15 18 20 22 23 23 23 23 23 24 25 26 28 29 28 25 24 21 21 20 21 21 19 17 15 nan nan nan nan nan nan nan nan
3 3 3 3 4 7 6 6 7 7 7 9 9 11 11 10 10 11 12 10 8 8 10 10 8 8 9 7 11 7 6 4 4 4 5 5 7 9 10 11 12 15 17 20 21 22 22 23 24 25 26 27 28 29 30 30 29 27 25 23 22 22 22 20 18 16 nan nan nan nan nan nan nan nan
2 2 1 1 3 6 5 5 6 6 6 7 7 8 9 9 8 8 9 9 10 7 8 8 10 8 11 9 9 7 5 5 4 3 3 6 9 10 11 12 13 15 17 19 21 22 23 24 25 27 28 29 29 29 30 31 31 30 29 27 24 24 23 22 19 18 14 nan nan nan nan nan nan nan
2 1 1 1 2 5 4 4 4 5 5 6 5 5 8 8 7 8 8 10 8 7 5 7 7 8 8 9 5 5 6 5 5 4 5 6 8 11 12 13 14 14 17 18 20 22 23 24 26 28 29 28 29 29 30 31 32 33 33 30 27 25 24 22 21 19 16 10 nan nan nan nan nan nan
3 2 1 1 1 3 2 2 3 3 4 4 5 4 5 7 5 8 9 8 7 7 4 4 5 4 4 3 3 2 2 3 3 5 6 8 9 10 11 13 14 14 15 16 19 21 24 25 26 27 27 29 30 30 29 31 32 33 34 33 30 28 25 24 22 20 18 14 nan nan nan nan nan nan
3 2 2 1 2 3 2 1 1 1 1 2 3 3 3 4 5 7 8 8 8 6 3 1 2 3 2 2 1 1 1 1 3 5 8 8 9 9 10 12 13 13 14 16 18 20 22 23 24 25 27 29 30 30 30 31 32 34 34 33 33 31 28 25 24 22 20 18 12 nan nan nan nan nan
6 4 3 2 3 3 2 1 1 1 2 1 1 2 2 2 2 2 4 6 6 5 3 2 3 1 1 2 2 0 3 3 3 5 9 11 11 10 9 11 12 12 13 14 15 18 20 22 24 25 26 27 29 29 29 30 32 33 33 33 33 33 31 28 26 24 22 20 16 11 nan nan nan nan
7 7 6 5 5 4 3 1 2 2 1 1 1 2 2 1 1 1 1 2 2 3 1 1 2 1 1 3 2 3 6 7 9 8 7 6 11 13 11 8 10 12 12 15 18 17 17 18 20 22 24 27 28 28 28 29 31 32 33 32 32 33 32 30 28 26 25 22 19 16 nan nan nan nan
9 9 8 8 7 6 5 4 4 5 3 4 2 2 2 2 2 2 3 2 2 2 2 2 2 3 3 3 4 6 7 7 10 13 12 10 7 7 13 15 10 10 13 13 14 18 19 20 22 23 23 26 27 27 26 28 30 31 31 31 31 31 32 31 30 28 26 25 22 20 16 nan nan nan
9 10 10 10 10 8 5 4 4 5 7 7 4 3 6 4 4 3 4 4 4 4 5 4 5 6 6 6 6 6 8 9 6 10 11 9 9 11 10 11 17 17 15 16 17 17 20 20 21 22 22 25 26 27 28 25 27 nan nan 29 29 29 30 30 30 28 27 26 24 22 19 nan nan nan
9 9 10 10 6 6 6 5 5 4 4 6 7 6 7 7 8 7 6 6 7 8 8 7 8 9 10 10 10 11 11 8 9 8 10 8 7 10 11 14 17 18 18 16 16 19 22 24 23 25 25 24 27 24 26 25 24 nan nan 27 27 27 27 28 29 28 26 25 25 24 22 19 nan nan
8 9 9 10 8 7 7 8 6 6 6 7 6 5 6 8 11 11 10 10 11 12 12 12 13 13 12 11 13 13 10 10 9 9 10 9 10 10 11 11 14 22 21 18 19 18 24 26 25 26 26 24 24 25 25 23 23 nan nan nan 25 25 26 26 27 27 26 24 24 24 24 22 nan nan
10 10 11 11 12 12 11 12 12 10 9 8 8 7 7 6 7 10 12 12 12 15 14 14 13 16 14 12 13 12 12 8 10 11 12 12 12 12 14 17 16 21 24 19 17 18 25 27 26 25 25 24 24 24 23 22 23 nan nan nan 24 24 24 25 25 26 26 24 23 22 23 23 22 nan
11 11 13 12 13 13 10 11 12 13 13 12 10 10 10 9 9 8 9 11 13 14 15 15 13 15 14 14 13 16 14 14 10 10 12 15 15 16 16 16 17 18 26 22 19 19 24 28 25 25 23 23 24 23 24 24 23 22 nan 24 24 23 23 24 25 25 25 24 23 22 22 22 21 nan
14 14 14 14 14 15 14 14 14 15 15 16 16 16 16 16 13 11 11 nan nan 13 15 14 14 12 18 13 12 11 16 13 10 11 11 13 16 17 17 17 18 21 29 24 19 17 22 29 25 24 22 23 24 25 23 23 23 23 23 24 24 23 23 24 24 25 25 25 24 22 22 22 22 21
16 16 18 16 15 14 16 18 18 17 17 17 17 16 15 16 16 16 16 18 20 21 20 16 15 13 14 14 11 12 15 15 13 13 12 15 17 17 17 19 22 22 28 27 25 19 21 30 25 23 22 21 22 24 23 23 24 24 22 22 22 22 22 23 24 24 24 24 24 23 22 22 nan nan
19 19 19 19 18 16 17 17 19 19 20 19 17 15 15 16 16 16 nan nan nan 19 20 20 18 16 15 14 14 15 17 17 19 19 19 20 21 19 16 16 20 21 29 33 29 21 20 28 24 21 22 23 22 23 25 22 nan nan nan 20 20 20 21 21 nan nan 23 23 23 23 23 23 nan nan
21 22 22 21 20 19 19 19 21 22 22 20 18 17 16 17 16 16 18 20 17 15 15 14 nan nan 11 11 12 nan 13 17 22 23 20 19 21 20 16 17 20 20 26 34 32 24 19 27 27 22 24 24 23 23 24 25 25 nan nan nan nan nan nan nan nan nan 21 22 22 22 23 23 nan nan
23 23 19 19 22 21 21 20 20 24 27 22 20 20 18 16 16 17 21 24 22 20 17 14 13 12 nan 11 11 13 15 16 27 28 22 21 25 22 21 18 20 20 25 30 37 28 23 25 29 25 26 26 27 27 26 24 24 nan nan nan nan nan nan nan nan nan nan 19 20 21 22 22 24 nan
25 25 25 23 22 22 22 22 25 29 28 23 23 22 20 17 16 18 22 22 20 21 21 20 21 19 18 19 21 20 17 20 28 29 25 25 27 23 22 22 22 20 23 32 42 31 26 27 29 29 26 23 27 29 28 24 nan nan nan nan nan nan nan nan nan nan nan nan 19 20 21 22 24 19
27 28 28 27 25 26 32 34 34 33 33 29 26 25 23 20 17 21 22 22 23 23 23 22 22 21 22 24 24 26 26 28 31 31 30 29 29 27 24 24 26 23 24 35 40 34 29 29 25 31 28 21 20 26 28 25 25 22 23 22 nan nan nan nan nan nan nan nan 21 21 21 23 24 19
27 28 29 30 38 38 35 33 32 33 34 34 32 31 28 24 21 23 23 22 20 22 23 23 23 23 24 24 25 25 26 27 29 31 31 31 32 31 27 25 26 23 24 30 39 31 26 27 23 29 29 29 24 21 25 25 23 21 22 22 19 19 19 nan nan nan nan nan nan nan 21 24 26 21
30 31 31 32 35 35 34 31 31 30 32 33 33 32 29 25 23 24 25 25 26 25 25 24 23 23 24 24 25 25 26 26 28 28 29 32 31 30 28 27 24 21 22 30 40 31 25 21 22 22 27 29 22 26 20 22 24 22 23 21 21 20 22 19 nan nan nan nan nan nan nan nan nan nan
33 32 32 32 34 35 33 31 30 29 30 33 33 30 29 29 28 29 30 30 30 29 28 27 26 26 27 28 27 28 28 28 29 28 29 30 31 31 28 26 24 21 20 26 36 31 29 23 25 26 24 25 20 20 21 19 22 26 22 23 23 23 24 23 21 20 nan nan nan nan nan nan nan nan
34 34 33 33 32 30 29 30 29 29 29 30 29 30 30 32 33 34 32 33 33 32 30 29 28 27 29 30 29 30 31 30 31 31 31 32 32 33 31 29 25 24 23 25 31 34 31 25 24 26 25 23 21 19 17 23 21 20 19 22 25 25 25 26 24 22 22 21 nan nan nan nan nan nan
35 33 31 29 28 28 27 28 29 30 29 27 27 28 31 34 37 36 35 35 33 30 29 28 27 27 29 31 30 31 32 31 32 33 34 33 34 34 34 32 28 28 29 30 32 35 35 28 25 25 28 27 24 20 21 17 19 19 24 21 21 26 27 28 27 26 24 25 22 nan nan nan nan nan
30 29 29 28 28 29 31 34 35 35 35 34 32 31 32 35 35 36 36 35 32 30 29 29 28 28 30 30 32 32 31 32 31 34 33 33 34 37 36 33 31 33 34 34 35 37 38 34 30 28 26 27 26 21 21 18 16 19 21 21 19 19 27 30 28 27 27 25 23 22 21 22 20 nan
32 31 31 30 27 28 27 29 32 33 33 36 37 38 38 37 36 36 36 34 33 31 30 29 28 29 29 30 31 31 32 30 32 34 34 33 32 35 37 35 28 29 34 38 38 40 41 39 37 34 29 26 26 25 22 21 13 16 20 23 23 19 26 28 26 26 27 25 23 22 22 22 21 21
nan nan nan nan 32 34 34 35 37 39 40 39 39 40 39 38 37 35 33 32 33 33 33 31 28 26 26 25 27 29 28 28 29 32 32 31 31 33 36 35 30 29 31 33 38 40 41 41 40 38 33 28 24 24 26 23 17 15 15 22 22 20 20 20 23 24 27 27 24 23 23 23 23 23
nan nan nan nan nan nan nan nan nan nan nan nan nan nan nan 40 38 37 37 35 35 35 34 32 29 26 25 24 26 26 24 25 27 31 31 30 30 30 34 34 30 28 28 30 34 40 42 41 41 38 35 31 27 24 23 19 20 22 20 23 24 20 21 20 21 23 31 30 26 24 22 24 24 24
nan nan nan nan nan nan nan nan nan nan nan nan nan nan nan nan nan nan nan 41 41 38 35 33 32 30 29 26 25 25 24 24 28 32 33 31 32 31 31 32 32 32 31 31 35 37 40 42 42 40 34 29 28 28 29 23 19 22 21 22 20 17 19 23 24 27 30 29 28 24 23 22 25 27
nan nan nan nan nan nan nan nan nan nan nan nan nan nan nan nan nan nan nan nan nan nan nan nan 36 34 32 30 30 28 28 29 29 31 34 34 34 32 32 31 30 31 32 31 33 38 40 41 42 40 36 32 27 24 31 29 24 22 23 20 19 17 16 24 24 28 31 29 30 24 20 20 22 30
nan nan nan nan nan nan nan nan nan nan nan nan nan nan nan nan nan nan nan nan nan nan nan 40 39 38 38 36 35 35 34 34 34 33 32 34 34 33 33 32 32 31 33 32 33 37 40 40 42 40 36 33 30 22 25 35 33 30 27 24 23 24 25 26 28 28 34 32 33 30 25 20 22 29
nan nan nan nan nan nan nan nan nan nan nan nan nan nan nan nan nan nan nan nan nan nan nan nan nan nan 41 42 41 41 40 38 36 36 36 36 36 36 35 34 34 34 33 33 35 37 40 40 42 41 37 35 33 27 24 40 31 31 32 29 26 29 28 30 31 29 32 36 33 36 32 29 26 31
nan nan nan nan nan nan nan nan nan nan nan nan nan nan nan nan nan nan nan nan nan nan nan nan nan nan nan nan nan 46 46 44 41 40 39 38 37 39 40 37 35 35 34 33 34 37 41 40 41 41 40 37 33 29 24 31 33 32 36 31 29 30 33 33 32 28 29 37 36 38 40 36 33 34
nan nan nan nan nan nan nan nan nan nan nan nan nan nan nan nan nan nan nan nan nan nan nan nan nan nan nan nan nan nan nan nan nan 45 45 44 42 41 40 40 38 36 36 34 34 37 40 39 40 41 42 39 36 33 30 25 21 28 36 39 35 34 36 37 32 29 29 30 36 41 41 40 38 37
nan nan nan nan nan nan nan nan nan nan nan nan nan nan nan nan nan nan nan nan nan nan nan nan nan nan nan nan nan nan nan nan nan nan nan nan 47 44 43 42 41 39 37 37 34 35 39 42 42 42 41 39 36 35 34 30 25 24 29 34 37 38 36 38 35 32 29 33 36 36 36 42 41 43
nan nan nan nan nan nan nan nan nan nan nan nan nan nan nan nan nan nan nan nan nan nan nan nan nan nan nan nan nan nan nan nan nan nan nan 51 50 49 47 46 45 44 40 38 34 33 34 41 43 40 39 39 38 38 37 32 24 21 25 30 37 38 36 36 36 35 32 34 37 36 31 30 31 37
nan nan nan nan nan nan nan nan nan nan nan nan nan nan nan nan nan nan nan nan nan nan nan nan nan nan nan nan nan nan nan nan nan nan nan nan nan nan nan 50 48 46 44 42 39 35 37 42 44 45 45 43 42 40 36 34 28 23 22 26 34 39 37 36 35 35 34 35 36 33 31 29 32 30
nan nan nan nan nan nan nan nan nan nan nan nan nan nan nan nan nan nan nan nan nan nan nan nan nan nan nan nan nan nan nan nan nan nan nan nan nan nan nan nan nan 48 46 44 41 38 38 42 46 47 48 46 45 44 39 35 32 28 23 21 27 36 40 37 35 33 32 31 32 31 30 30 34 30
nan nan nan nan nan nan nan nan nan nan nan nan nan nan nan nan nan nan nan nan nan nan nan nan nan nan nan nan nan nan nan nan nan nan nan nan nan nan nan nan nan nan nan nan 45 43 43 45 47 49 48 47 47 45 43 39 36 32 28 26 27 31 35 43 41 36 33 30 28 28 27 26 27 23
nan nan nan nan nan nan nan nan nan nan nan nan nan nan nan nan nan nan nan nan nan nan nan nan nan nan nan nan nan nan nan nan nan nan nan nan nan nan nan nan nan nan nan nan nan nan 47 48 49 51 49 48 48 47 45 42 38 37 33 29 26 26 30 38 40 39 38 36 36 39 36 34 31 28
Wind_Direction
263 262 274 230 209 210 218 227 236 237 252 268 271 263 260 277 256 233 229 234 246 247 259 251 247 258 254 245 280 289 353 13 35 20 19 27 33 46 47 43 41 39 34 29 29 28 28 28 25 22 24 21 13 7 1 356 356 354 357 355 350 350 352 353 nan nan nan nan nan nan nan nan nan nan
281 274 272 265 249 243 239 237 251 254 262 268 271 265 265 270 259 276 260 245 278 264 264 280 263 251 240 278 282 331 8 15 27 12 15 26 35 47 48 43 37 33 30 29 28 28 27 27 27 26 25 22 13 8 7 1 0 354 356 356 351 352 354 354 nan nan nan 23 nan nan nan nan nan nan
300 299 294 277 266 265 255 252 264 271 274 277 272 268 269 274 281 286 282 268 263 283 266 266 288 284 273 290 313 342 354 3 6 9 14 30 45 49 41 43 36 31 29 29 30 29 28 29 29 27 23 23 18 12 13 9 5 357 358 358 354 354 356 357 359 nan nan nan nan nan nan nan nan nan
316 313 304 282 270 269 263 259 263 275 276 277 278 281 280 279 287 287 288 291 292 303 309 306 306 313 305 305 328 346 346 1 359 2 32 38 33 19 17 25 27 28 28 28 30 30 30 30 30 28 25 25 23 15 14 12 11 3 1 2 357 357 358 1 3 2 nan nan nan nan nan nan nan nan
316 322 317 287 272 269 263 258 257 254 269 272 275 277 282 288 294 298 293 297 303 299 308 309 316 304 297 301 314 324 337 346 345 344 7 11 8 8 5 3 18 26 27 28 29 31 30 30 29 29 28 27 25 17 16 15 15 11 6 4 1 1 2 4 9 7 nan nan nan nan nan nan nan nan
289 307 333 307 264 272 266 255 257 267 262 270 269 275 281 288 295 301 301 303 300 309 298 312 314 320 315 320 315 332 332 345 332 357 16 5 358 1 357 356 4 21 24 27 28 28 30 31 29 29 28 28 27 24 18 17 18 17 11 5 3 3 4 7 10 11 7 nan nan nan nan nan nan nan
279 304 355 97 245 264 268 277 273 274 281 279 279 269 277 285 292 297 307 296 302 309 313 312 304 319 318 327 342 345 340 347 340 10 21 11 359 353 357 357 357 13 22 25 26 28 31 30 30 28 27 25 25 26 20 17 19 20 16 10 6 3 3 6 9 11 10 359 nan nan nan nan nan nan
291 322 353 43 294 275 288 302 302 297 300 305 308 305 295 294 294 292 294 308 306 294 296 305 316 304 311 346 359 9 359 17 26 4 5 356 356 358 353 354 357 4 18 25 27 30 30 30 29 26 22 22 22 22 19 15 17 20 19 14 9 4 3 4 7 10 11 11 nan nan nan nan nan nan
271 290 331 355 286 299 323 329 328 330 12 338 326 341 331 318 307 289 296 300 300 303 327 303 282 267 283 322 105 88 98 13 2 351 355 350 350 358 354 347 353 5 20 24 30 29 28 28 26 23 20 19 19 18 16 14 16 19 20 16 12 8 4 3 2 5 9 11 358 nan nan nan nan nan
256 256 274 277 282 291 325 350 334 332 38 16 14 48 49 17 329 323 308 304 309 321 355 1 147 178 166 165 114 125 316 329 338 346 341 339 345 350 342 343 344 344 348 356 6 12 16 18 21 22 18 15 15 15 14 13 14 17 18 18 14 10 7 3 1 359 2 6 5 345 nan nan nan nan
254 253 247 252 267 280 288 285 275 266 263 262 74 62 94 111 93 100 65 305 315 328 349 305 355 122 276 310 111 302 303 318 332 337 321 325 333 334 336 345 342 341 352 3 11 16 16 14 10 10 10 9 11 13 13 12 13 14 16 18 16 12 9 5 2 358 356 360 1 347 nan nan nan nan
257 257 252 250 256 264 263 272 266 271 253 257 220 205 212 196 183 147 164 195 241 254 268 276 188 273 244 248 310 303 302 313 320 326 330 332 343 342 329 335 344 348 350 355 351 354 359 2 6 10 8 8 8 9 10 12 12 13 14 15 16 14 10 7 4 1 355 353 356 355 346 nan nan nan
257 256 256 256 259 265 272 290 285 281 281 273 255 237 265 252 250 220 213 216 224 233 250 233 266 265 262 281 280 277 297 321 335 311 311 322 332 327 323 332 335 344 347 342 343 351 350 351 352 348 350 352 352 357 3 6 10 nan nan 12 14 14 11 7 5 3 358 352 351 353 348 nan nan nan
259 261 263 262 274 279 281 278 282 290 297 302 285 267 265 268 269 266 249 247 254 253 253 262 260 261 275 282 294 300 306 306 298 300 305 310 311 303 316 320 326 324 329 332 340 346 341 345 349 345 348 347 341 341 341 349 352 nan nan 7 9 11 11 7 4 3 1 356 350 348 347 350 nan nan
245 248 254 253 252 252 255 262 278 278 281 281 290 299 295 284 280 272 270 263 270 270 269 269 273 280 279 283 290 297 295 297 303 296 296 306 302 304 297 300 307 317 326 329 330 339 332 337 345 346 346 345 339 336 340 354 356 nan nan nan 2 5 6 5 3 1 360 358 352 347 345 348 nan nan
246 241 241 244 247 250 257 255 253 257 262 268 269 270 269 269 282 285 280 272 266 275 275 276 280 281 287 287 284 287 292 298 290 300 300 307 308 304 306 307 314 312 313 326 333 339 329 331 339 341 345 341 335 336 341 347 350 nan nan nan 357 358 360 0 0 359 357 356 353 347 342 344 347 nan
268 263 257 251 253 252 262 261 260 261 258 261 268 264 256 249 256 267 280 284 280 269 273 277 277 287 286 286 291 297 296 291 287 280 292 301 302 302 304 310 308 310 310 318 328 332 327 325 336 339 342 336 330 331 337 346 349 350 nan 349 351 353 354 355 355 355 354 353 351 348 344 343 344 nan
272 275 275 274 270 272 272 270 272 271 270 267 267 270 274 274 273 278 291 nan nan 292 279 280 282 288 292 296 294 296 294 290 286 280 286 288 292 297 307 308 310 306 304 318 318 325 325 321 331 338 336 328 326 327 337 343 343 345 346 346 348 349 349 349 350 351 350 349 348 346 342 339 338 339
263 267 272 276 277 274 277 282 281 279 277 276 277 278 279 282 281 280 280 285 288 288 290 294 294 294 291 295 295 288 287 295 292 289 283 279 283 287 291 298 306 307 311 316 313 326 319 311 325 335 330 322 323 323 329 341 342 344 346 345 345 346 347 347 347 347 347 346 345 343 340 337 nan nan
261 265 271 275 277 277 276 281 288 286 279 283 283 282 279 277 280 282 nan nan nan 292 293 294 294 293 298 301 297 290 285 283 284 278 277 279 282 285 289 297 295 302 304 310 314 320 323 314 326 332 321 314 319 319 322 335 nan nan nan 343 343 344 346 347 nan nan 345 344 342 341 339 335 nan nan
254 260 265 269 268 269 271 271 279 285 284 280 281 278 273 271 267 268 270 285 298 303 308 312 nan nan 306 302 301 nan 294 289 277 273 277 282 285 288 290 291 292 300 300 302 311 318 323 315 321 324 316 314 315 317 323 327 329 nan nan nan nan nan nan nan nan nan 345 343 341 340 339 335 nan nan
253 255 254 258 265 268 267 265 268 277 284 283 282 279 276 272 270 265 268 270 278 295 302 303 304 301 nan 290 287 286 288 291 286 288 290 289 287 293 296 295 295 296 295 300 303 310 324 311 314 314 307 309 315 317 322 326 323 nan nan nan nan nan nan nan nan nan nan 343 342 341 338 334 324 nan
255 255 256 256 257 261 263 256 254 258 269 277 279 278 276 275 270 267 262 269 272 272 275 279 281 280 285 284 282 283 292 291 291 293 295 287 290 295 297 298 292 293 299 297 303 312 312 310 309 307 300 308 311 312 316 319 nan nan nan nan nan nan nan nan nan nan nan nan 343 343 340 334 325 319
249 252 255 260 261 256 253 257 260 263 270 276 274 273 275 274 271 266 269 274 276 276 279 277 280 280 276 277 279 278 279 281 288 291 293 294 295 298 299 300 301 304 294 287 299 308 304 304 305 301 305 305 306 307 311 315 314 316 316 316 nan nan nan nan nan nan nan nan 349 348 344 337 333 322
248 250 251 254 260 261 262 260 262 267 271 277 277 278 278 277 268 256 263 266 267 272 273 274 277 279 279 279 280 280 281 282 285 289 294 295 297 298 299 298 298 300 299 292 297 301 307 304 302 296 299 306 310 310 313 311 311 317 316 315 315 312 310 nan nan nan nan nan nan nan 349 345 346 338
254 254 255 255 260 252 249 250 254 259 265 270 272 277 282 278 270 269 269 268 270 274 275 277 279 280 281 281 283 284 284 285 287 290 293 295 298 299 301 300 297 294 294 293 304 305 308 306 308 303 299 302 313 315 313 309 310 312 306 308 310 307 305 308 nan nan nan nan nan nan nan nan nan nan
252 254 254 254 247 242 241 242 245 251 260 267 272 275 276 277 274 272 276 276 276 276 276 277 277 278 280 282 283 285 286 288 291 293 295 295 297 298 300 303 304 305 299 288 295 301 304 307 302 305 304 306 311 310 311 303 300 298 302 308 307 305 305 305 308 309 nan nan nan nan nan nan nan nan
253 254 255 253 243 240 240 242 244 245 251 261 267 273 275 275 275 274 274 277 278 277 276 277 278 280 281 282 283 285 286 287 288 290 290 292 294 296 296 300 305 305 300 297 294 296 299 304 302 306 310 309 309 311 305 304 301 303 307 301 299 300 303 306 307 305 304 302 nan nan nan nan nan nan
252 247 243 244 247 248 247 246 248 252 255 260 265 267 270 272 272 275 275 275 274 275 277 277 278 279 283 285 286 285 285 286 287 288 287 289 290 291 292 293 297 298 297 296 296 297 298 303 303 301 301 305 309 310 306 304 298 297 297 296 301 303 305 303 304 305 305 302 304 nan nan nan nan nan
243 243 244 247 252 257 259 259 259 258 257 254 254 256 260 267 268 271 272 272 273 273 272 273 276 278 279 281 282 283 283 286 288 287 286 285 287 288 288 289 294 297 296 296 296 297 298 299 301 299 301 302 306 307 304 300 300 297 293 297 298 298 303 302 306 306 303 303 305 307 304 300 302 nan
244 243 247 249 251 259 260 263 264 261 255 256 258 261 264 265 267 269 272 273 271 270 268 268 269 271 272 273 274 279 282 285 287 288 287 288 287 286 286 288 287 285 287 290 292 293 294 296 297 299 300 301 302 304 301 300 300 282 284 290 291 299 290 295 299 303 303 305 305 303 298 300 303 306
nan nan nan nan 254 254 255 257 258 256 254 254 255 256 259 262 263 264 267 267 269 271 272 269 267 266 267 267 272 274 278 283 284 286 287 288 287 286 286 287 286 282 280 282 286 289 291 292 293 295 300 300 303 297 294 295 293 277 269 277 283 287 288 290 292 296 300 302 305 309 310 308 307 304
nan nan nan nan nan nan nan nan nan nan nan nan nan nan nan 251 254 259 260 260 262 264 265 265 264 263 263 264 269 273 272 278 281 283 284 287 288 287 290 292 289 284 279 278 281 284 287 288 292 295 297 300 301 297 289 287 284 278 272 270 274 282 286 286 287 290 291 298 308 310 312 312 311 308
nan nan nan nan nan nan nan nan nan nan nan nan nan nan nan nan nan nan nan 253 250 250 254 259 262 262 266 265 266 268 271 272 278 282 284 283 284 287 290 292 293 290 286 283 283 282 284 287 289 291 295 298 297 299 296 294 283 276 273 266 267 272 282 286 287 291 296 301 303 304 305 307 310 307
nan nan nan nan nan nan nan nan nan nan nan nan nan nan nan nan nan nan nan nan nan nan nan nan 254 257 261 264 267 270 272 275 275 276 281 282 283 286 288 291 291 289 287 285 284 284 285 287 289 290 292 293 292 296 305 302 286 280 271 272 273 278 279 286 286 288 293 291 290 294 294 299 301 300
nan nan nan nan nan nan nan nan nan nan nan nan nan nan nan nan nan nan nan nan nan nan nan 253 253 254 255 258 261 266 270 274 276 277 277 280 281 282 285 288 289 288 288 289 287 286 287 288 289 290 291 289 287 281 281 307 307 287 284 278 277 279 279 277 281 281 284 286 289 291 292 291 293 295
nan nan nan nan nan nan nan nan nan nan nan nan nan nan nan nan nan nan nan nan nan nan nan nan nan nan 257 259 260 264 267 271 275 278 279 279 281 283 283 284 287 288 289 292 291 290 290 289 290 291 291 289 287 285 280 278 298 307 292 288 280 278 272 272 273 276 282 288 291 295 296 292 290 290
nan nan nan nan nan nan nan nan nan nan nan nan nan nan nan nan nan nan nan nan nan nan nan nan nan nan nan nan nan 263 263 265 268 274 277 277 279 281 282 282 282 284 286 288 290 291 291 290 290 290 290 289 286 284 274 275 280 286 303 294 282 274 271 269 270 272 279 288 293 293 292 291 293 291
nan nan nan nan nan nan nan nan nan nan nan nan nan nan nan nan nan nan nan nan nan nan nan nan nan nan nan nan nan nan nan nan nan 267 269 271 273 275 277 278 279 278 280 283 286 289 289 290 289 288 287 287 288 286 281 272 275 278 292 308 291 278 275 276 276 277 281 285 289 290 292 292 285 282
nan nan nan nan nan nan nan nan nan nan nan nan nan nan nan nan nan nan nan nan nan nan nan nan nan nan nan nan nan nan nan nan nan nan nan nan 266 268 270 273 274 274 276 278 278 280 284 284 283 283 282 285 285 284 281 281 277 278 282 289 301 292 283 281 284 284 286 289 288 290 293 290 287 282
nan nan nan nan nan nan nan nan nan nan nan nan nan nan nan nan nan nan nan nan nan nan nan nan nan nan nan nan nan nan nan nan nan nan nan 261 262 263 263 265 268 271 271 272 271 273 274 277 279 284 284 279 280 275 277 278 280 274 276 278 290 301 300 296 290 289 292 291 292 296 301 297 287 280
nan nan nan nan nan nan nan nan nan nan nan nan nan nan nan nan nan nan nan nan nan nan nan nan nan nan nan nan nan nan nan nan nan nan nan nan nan nan nan 263 264 264 266 267 267 263 264 268 272 276 277 277 275 278 280 282 278 269 264 269 272 287 296 299 302 301 297 294 296 300 300 294 288 286
nan nan nan nan nan nan nan nan nan nan nan nan nan nan nan nan nan nan nan nan nan nan nan nan nan nan nan nan nan nan nan nan nan nan nan nan nan nan nan nan nan 261 262 262 261 259 260 263 269 273 274 276 277 279 280 280 277 272 265 260 268 273 278 288 296 302 305 310 312 309 303 297 289 287
nan nan nan nan nan nan nan nan nan nan nan nan nan nan nan nan nan nan nan nan nan nan nan nan nan nan nan nan nan nan nan nan nan nan nan nan nan nan nan nan nan nan nan nan 259 259 258 259 265 271 273 275 275 276 276 276 275 273 269 267 267 271 275 275 277 282 287 296 307 310 313 311 308 304
nan nan nan nan nan nan nan nan nan nan nan nan nan nan nan nan nan nan nan nan nan nan nan nan nan nan nan nan nan nan nan nan nan nan nan nan nan nan nan nan nan nan nan nan nan nan 256 257 261 266 271 273 274 275 275 275 273 270 270 270 267 270 268 269 270 272 276 280 294 307 308 312 315 313